Harrison, AR

8:20 AM CDT on October 18, 2019 (GMT -0500)
Boone County

Weather History for KHRO - September, 2019

Change the Weather History Date:

Wednesday, September 18, 2019

  Actual Average Record
Temperature  
Mean Temperature 79 °F 68 °F  
Max Temperature 91 °F 80 °F 96 °F (1925)
Min Temperature 66 °F 57 °F 34 °F (1901)
Degree Days  
Heating Degree Days 0 2  
Month to date heating degree days 0 9  
Since 1 July heating degree days 0 10  
Cooling Degree Days 14 5  
Month to date cooling degree days 244 127  
Year to date cooling degree days 1428 1338  
Growing Degree Days 29 (Base 50)    
Moisture  
Dew Point 64 °F    
Average Humidity 66    
Maximum Humidity 93    
Minimum Humidity 38    
Precipitation  
Precipitation 0.00 in 0.15 in 1.89 in (1991)
Month to date precipitation 0.19 2.54  
Year to date precipitation 38.33 31.50  
Snow  
Snow 0.00 in 0.00 in - ()
Month to date snowfall 0.0 0.0  
Since 1 July snowfall 0.0 0.0  
Since 1 September snowfall 0.0 0.0  
Snow Depth 0.00 in    
Sea Level Pressure  
Sea Level Pressure 30.00 in    
Wind  
Wind Speed 2 mph ()    
Max Wind Speed 12 mph    
Max Gust Speed 17 mph    
Visibility 9.7 miles    
Events      
T = Trace of Precipitation, MM = Missing Value Source: Averaged Metar Reports

Daily Weather History Graph

Daily Weather History Graph

Search for Another Location

Airport or City:

Astronomy

Sep. 18, 2019 Rise Set
Actual Time 6:57 AM CDT 7:15 PM CDT
Civil Twilight 6:31 AM CDT 7:41 PM CDT
Nautical Twilight 6:01 AM CDT 8:11 PM CDT
Astronomical Twilight 5:30 AM CDT 8:42 PM CDT
Moon 9:57 PM CDT 10:54 AM CDT
Length of Visible Light 13h 09m
Length of Day
12h 18m
Waning Gibbous, 82% of the Moon is Illuminated
Sep 18
Waning Gibbous
Sep 21
Last Quarter
Sep 28
New
Oct 5
First Quarter
Oct 13
Full

Hourly Weather History & Observations

Time (CDT) Temp. Heat Index Dew Point Humidity Pressure Visibility Wind Dir Wind Speed Gust Speed Precip Events Conditions
12:53 AM 70.0 °F - 64.9 °F 84% 29.99 in 10.0 mi Calm Calm - N/A   Clear
1:53 AM 70.0 °F - 64.9 °F 84% 30.00 in 10.0 mi Calm Calm - N/A   Clear
2:53 AM 69.1 °F - 64.9 °F 87% 29.99 in 9.0 mi Calm Calm - N/A   Clear
3:53 AM 68.0 °F - 64.9 °F 90% 29.99 in 10.0 mi ESE 3.5 mph - N/A   Clear
4:53 AM 66.9 °F - 64.0 °F 90% 29.99 in 9.0 mi ESE 3.5 mph - N/A   Clear
5:53 AM 66.0 °F - 64.0 °F 93% 29.99 in 9.0 mi Calm Calm - N/A   Clear
6:53 AM 66.9 °F - 64.0 °F 90% 30.01 in 9.0 mi SE 3.5 mph - N/A   Clear
7:53 AM 69.1 °F - 64.9 °F 87% 30.03 in 7.0 mi Calm Calm - N/A   Clear
8:53 AM 73.9 °F - 66.0 °F 76% 30.04 in 10.0 mi SSE 3.5 mph - N/A   Clear
9:53 AM 79.0 °F - 66.0 °F 64% 30.04 in 10.0 mi SE 4.6 mph - N/A   Clear
10:53 AM 84.0 °F 84.9 °F 63.0 °F 49% 30.03 in 10.0 mi South 8.1 mph - N/A   Clear
11:53 AM 87.1 °F 87.8 °F 63.0 °F 44% 30.03 in 10.0 mi South 8.1 mph - N/A   Clear
12:53 PM 89.1 °F 89.3 °F 62.1 °F 40% 30.02 in 10.0 mi South 5.8 mph - N/A   Clear
2:53 PM 91.0 °F 91.5 °F 62.1 °F 38% 29.98 in 10.0 mi SSE 5.8 mph - N/A   Clear
3:53 PM 91.0 °F 91.5 °F 62.1 °F 38% 29.97 in 10.0 mi ESE 6.9 mph - N/A   Scattered Clouds
4:53 PM 90.0 °F 90.3 °F 62.1 °F 39% 29.96 in 10.0 mi SE 5.8 mph - N/A   Scattered Clouds
5:53 PM 89.1 °F 89.0 °F 61.0 °F 39% 29.96 in 10.0 mi SE 8.1 mph - N/A   Clear
6:53 PM 84.0 °F 84.9 °F 63.0 °F 49% 29.96 in 10.0 mi SSE 3.5 mph - N/A   Clear
7:53 PM 79.0 °F - 64.0 °F 60% 29.96 in 10.0 mi Calm Calm - N/A   Clear
8:53 PM 75.9 °F - 64.0 °F 67% 29.98 in 10.0 mi Calm Calm - N/A   Clear
9:53 PM 75.9 °F - 64.0 °F 67% 29.99 in 10.0 mi Calm Calm - N/A   Clear
10:53 PM 72.0 °F - 64.9 °F 78% 29.99 in 10.0 mi Calm Calm - N/A   Clear
11:53 PM 73.0 °F - 64.9 °F 76% 29.99 in 10.0 mi Calm Calm - N/A   Clear